QPF
0.01 0.01 0.02 0.03 0.04 0.04 0.04 0.03 0.03 0.02 0.02 0.02 0.02 0.03 0.03 0.04 0.04 0.04 0.03 0.03 0.03 0.03 0.03 0.03 0.03 0.03 0.04 0.04 0.05 0.06 0.06 0.07 0.06 0.04 0.03 0.02 0.02 0.01 0.01 0.01 0.01 0.01 0.01
0.01 0.01 0.01 0.02 0.03 0.03 0.04 0.04 0.03 0.03 0.03 0.02 0.02 0.03 0.03 0.03 0.03 0.03 0.03 0.03 0.03 0.03 0.03 0.03 0.03 0.03 0.03 0.04 0.05 0.05 0.06 0.06 0.06 0.04 0.02 0.02 0.02 0.02 0.02 0.01 0.01 0.02 0.02
0.00 0.00 0.01 0.01 0.01 0.02 0.03 0.03 0.04 0.03 0.03 0.04 0.03 0.03 0.02 0.02 0.02 0.03 0.03 0.03 0.03 0.02 0.02 0.02 0.02 0.02 0.02 0.03 0.03 0.03 0.04 0.04 0.04 0.04 0.03 0.03 0.02 0.02 0.02 0.02 0.02 0.02 0.02
0.00 0.00 0.00 0.00 0.01 0.01 0.02 0.02 0.02 0.03 0.03 0.03 0.04 0.04 0.03 0.02 0.02 0.02 0.03 0.03 0.03 0.03 0.04 0.03 0.03 0.03 0.03 0.03 0.03 0.03 0.03 0.03 0.03 0.03 0.03 0.03 0.02 0.02 0.02 0.02 0.02 0.01 0.01
0.00 0.00 0.00 0.00 0.00 0.00 0.01 0.01 0.01 0.02 0.02 0.03 0.03 0.03 0.04 0.04 0.04 0.03 0.03 0.03 0.03 0.04 0.04 0.05 0.05 0.05 0.04 0.04 0.04 0.04 0.04 0.04 0.04 0.04 0.03 0.03 0.02 0.02 0.03 0.02 0.02 0.02 0.02
0.00 0.00 0.00 0.00 0.00 0.00 0.00 0.00 0.01 0.01 0.02 0.02 0.02 0.02 0.03 0.04 0.05 0.05 0.04 0.04 0.04 0.05 0.04 0.04 0.04 0.05 0.05 0.05 0.05 0.05 0.05 0.05 0.05 0.05 0.04 0.04 0.03 0.03 0.03 0.03 0.03 0.03 0.03
0.00 0.00 0.00 0.00 0.00 0.00 0.00 0.00 0.00 0.01 0.01 0.01 0.02 0.02 0.02 0.02 0.03 0.03 0.03 0.03 0.04 0.04 0.04 0.04 0.04 0.04 0.05 0.04 0.04 0.05 0.05 0.05 0.05 0.04 0.04 0.03 0.03 0.03 0.03 0.03 0.04 0.04 0.04
0.00 0.00 0.01 0.00 0.00 0.00 0.00 0.00 0.01 0.01 0.01 0.01 0.01 0.01 0.01 0.01 0.02 0.02 0.02 0.02 0.02 0.03 0.03 0.03 0.03 0.03 0.04 0.04 0.04 0.04 0.04 0.04 0.05 0.05 0.05 0.04 0.04 0.04 0.03 0.03 0.03 0.03 0.03
0.00 0.01 0.01 0.01 0.01 0.00 0.00 0.00 0.00 0.01 0.01 0.01 0.01 0.01 0.01 0.01 0.01 0.01 0.01 0.01 0.01 0.01 0.02 0.02 0.02 0.02 0.02 0.02 0.02 0.02 0.03 0.03 0.04 0.04 0.04 0.04 0.04 0.03 0.03 0.03 0.04 0.04 0.03
0.00 0.00 0.01 0.00 0.00 0.00 0.00 0.00 0.00 0.00 0.00 0.01 0.01 0.01 0.01 0.01 0.01 0.01 0.01 0.01 0.01 0.01 0.01 0.01 0.01 0.01 0.01 0.01 0.01 0.01 0.02 0.02 0.02 0.02 0.02 0.03 0.03 0.03 0.03 0.03 0.03 0.03 0.03
0.00 0.00 0.00 0.00 0.00 0.00 0.00 0.00 0.00 0.00 0.00 0.00 0.00 0.01 0.01 0.01 0.01 0.01 0.01 0.00 0.00 0.00 0.00 0.01 0.01 0.02 0.02 0.02 0.02 0.02 0.02 0.02 0.02 0.02 0.02 0.02 0.03 0.03 0.03 0.02 0.02 0.03 0.03
0.00 0.00 0.00 0.01 0.01 0.01 0.01 0.01 0.01 0.01 0.01 0.01 0.01 0.01 0.01 0.01 0.01 0.01 0.01 0.01 0.01 0.01 0.01 0.01 0.01 0.01 0.01 0.01 0.01 0.01 0.02 0.02 0.02 0.02 0.02 0.02 0.02 0.02 0.02 0.02 0.02 0.02 0.02
0.00 0.00 0.01 0.01 0.01 0.01 0.01 0.01 0.01 0.01 0.01 0.01 0.01 0.01 0.01 0.01 0.01 0.01 0.01 0.01 0.01 0.01 0.01 0.01 0.02 0.02 0.02 0.02 0.02 0.02 0.02 0.02 0.02 0.02 0.03 0.03 0.02 0.02 0.02 0.02 0.02 0.02 0.02
0.00 0.00 0.00 0.01 0.01 0.01 0.01 0.01 0.01 0.01 0.01 0.01 0.01 0.01 0.01 0.01 0.01 0.01 0.01 0.01 0.01 0.02 0.02 0.02 0.02 0.02 0.02 0.03 0.03 0.02 0.02 0.02 0.02 0.02 0.02 0.02 0.02 0.02 0.02 0.02 0.02 0.02 0.02
0.00 0.00 0.00 0.01 0.01 0.01 0.01 0.01 0.01 0.01 0.01 0.02 0.02 0.02 0.02 0.02 0.02 0.02 0.02 0.02 0.02 0.02 0.02 0.02 0.02 0.02 0.02 0.02 0.02 0.02 0.02 0.02 0.02 0.02 0.02 0.02 0.01 0.01 0.02 0.02 0.02 0.02 0.02
0.00 0.00 0.00 0.00 0.01 0.01 0.01 0.01 0.01 0.01 0.01 0.02 0.02 0.02 0.02 0.02 0.02 0.02 0.02 0.02 0.02 0.02 0.02 0.02 0.03 0.03 0.03 0.02 0.02 0.02 0.02 0.02 0.02 0.02 0.01 0.01 0.02 0.01 0.01 0.01 0.01 0.01 0.02
0.00 0.01 0.01 0.01 0.01 0.01 0.01 0.01 0.02 0.02 0.03 0.03 0.02 0.02 0.02 0.02 0.02 0.02 0.03 0.03 0.03 0.03 0.03 0.03 0.03 0.03 0.03 0.03 0.02 0.02 0.02 0.02 0.02 0.02 0.02 0.02 0.02 0.02 0.02 0.02 0.02 0.01 0.01
0.01 0.01 0.01 0.01 0.01 0.01 0.01 0.01 0.02 0.02 0.03 0.03 0.03 0.03 0.03 0.03 0.03 0.03 0.03 0.03 0.03 0.03 0.02 0.03 0.03 0.03 0.03 0.02 0.02 0.02 0.02 0.02 0.02 0.02 0.03 0.03 0.03 0.03 0.03 0.02 0.02 0.02 0.01
0.01 0.01 0.01 0.01 0.01 0.01 0.02 0.02 0.02 0.02 0.02 0.03 0.03 0.04 0.04 0.03 0.03 0.04 0.03 0.03 0.03 0.02 0.02 0.03 0.03 0.03 0.03 0.02 0.02 0.02 0.02 0.02 0.03 0.03 0.03 0.03 0.03 0.03 0.03 0.02 0.02 0.02 0.01
0.01 0.01 0.01 0.01 0.01 0.01 0.02 0.02 0.03 0.03 0.03 0.03 0.03 0.03 0.03 0.03 0.03 0.03 0.03 0.02 0.02 0.02 0.02 0.02 0.02 0.02 0.02 0.02 0.02 0.02 0.02 0.02 0.02 0.02 0.02 0.02 0.02 0.02 0.02 0.02 0.01 0.01 0.01
0.01 0.01 0.02 0.02 0.02 0.02 0.02 0.02 0.03 0.03 0.03 0.03 0.02 0.02 0.02 0.02 0.02 0.02 0.02 0.02 0.02 0.02 0.02 0.02 0.02 0.02 0.01 0.01 0.01 0.01 0.01 0.01 0.01 0.01 0.01 0.01 0.02 0.02 0.02 0.01 0.01 0.01 0.01
0.02 0.02 0.02 0.02 0.02 0.03 0.02 0.02 0.03 0.03 0.02 0.02 0.02 0.02 0.02 0.02 0.01 0.01 0.01 0.01 0.01 0.01 0.01 0.01 0.01 0.01 0.01 0.01 0.01 0.01 0.01 0.01 0.01 0.01 0.01 0.01 0.01 0.02 0.02 0.02 0.02 0.01 0.01
0.02 0.02 0.03 0.03 0.03 0.03 0.03 0.03 0.02 0.02 0.02 0.01 0.01 0.01 0.01 0.01 0.01 0.01 0.01 0.01 0.01 0.01 0.01 0.00 0.00 0.00 0.00 0.01 0.01 0.01 0.01 0.01 0.01 0.01 0.02 0.02 0.02 0.02 0.02 0.02 0.02 0.02 0.02
0.02 0.02 0.03 0.03 0.03 0.03 0.03 0.03 0.03 0.02 0.01 0.01 0.01 0.01 0.01 0.01 0.01 0.01 0.01 0.01 0.01 0.00 0.00 0.00 0.00 0.00 0.00 0.01 0.01 0.01 0.01 0.01 0.01 0.02 0.02 0.02 0.02 0.02 0.02 0.02 0.02 0.01 0.02
0.02 0.02 0.02 0.03 0.03 0.03 0.02 0.02 0.02 0.01 0.01 0.01 0.01 0.01 0.01 0.01 0.01 0.01 0.01 0.01 0.00 0.00 0.00 0.00 0.00 0.00 0.00 0.00 0.01 0.01 0.01 0.01 0.01 0.02 0.02 0.02 0.02 0.02 0.02 0.02 0.02 0.02 0.02
0.02 0.02 0.02 0.02 0.02 0.02 0.02 0.01 0.01 0.01 0.01 0.01 0.01 0.01 0.01 0.01 0.00 0.00 0.00 0.00 0.00 0.00 0.00 0.00 0.00 0.00 0.00 0.00 0.01 0.01 0.01 0.01 0.02 0.02 0.02 0.03 0.03 0.02 0.02 0.02 0.02 0.02 0.02
MSLP
1013.47 1013.34 1013.21 1013.02 1012.78 1012.48 1012.14 1011.79 1011.46 1011.18 1010.96 1010.81 1010.71 1010.64 1010.59 1010.53 1010.44 1010.35 1010.24 1010.15 1010.09 1010.06 1010.08 1010.13 1010.19 1010.24 1010.25 1010.21 1010.10 1009.93 1009.72 1009.49 1009.28 1009.11 1009.01 1008.97 1009.01 1009.12 1009.28 1009.47 1009.70 1009.93 1010.18
1013.67 1013.58 1013.44 1013.24 1012.95 1012.58 1012.17 1011.73 1011.31 1010.93 1010.61 1010.36 1010.16 1010.00 1009.85 1009.70 1009.54 1009.37 1009.20 1009.05 1008.93 1008.86 1008.83 1008.85 1008.89 1008.92 1008.93 1008.89 1008.79 1008.64 1008.45 1008.25 1008.05 1007.89 1007.80 1007.79 1007.87 1008.02 1008.25 1008.54 1008.87 1009.22 1009.59
1013.78 1013.71 1013.58 1013.36 1013.03 1012.61 1012.13 1011.61 1011.11 1010.64 1010.23 1009.88 1009.58 1009.33 1009.09 1008.86 1008.62 1008.39 1008.16 1007.96 1007.80 1007.69 1007.64 1007.64 1007.66 1007.69 1007.70 1007.67 1007.59 1007.45 1007.27 1007.07 1006.89 1006.74 1006.66 1006.68 1006.79 1007.01 1007.32 1007.71 1008.16 1008.65 1009.15
1013.82 1013.76 1013.62 1013.37 1013.00 1012.54 1012.00 1011.42 1010.84 1010.29 1009.80 1009.36 1008.98 1008.64 1008.32 1008.01 1007.70 1007.41 1007.13 1006.89 1006.70 1006.58 1006.51 1006.50 1006.53 1006.56 1006.58 1006.56 1006.48 1006.36 1006.19 1006.00 1005.82 1005.68 1005.62 1005.66 1005.81 1006.09 1006.48 1006.98 1007.56 1008.19 1008.84
1013.78 1013.71 1013.54 1013.26 1012.86 1012.34 1011.75 1011.12 1010.49 1009.88 1009.32 1008.81 1008.35 1007.93 1007.54 1007.16 1006.80 1006.46 1006.14 1005.87 1005.66 1005.53 1005.46 1005.45 1005.47 1005.52 1005.54 1005.53 1005.47 1005.36 1005.20 1005.03 1004.86 1004.73 1004.69 1004.76 1004.95 1005.29 1005.77 1006.36 1007.06 1007.81 1008.59
1013.65 1013.55 1013.35 1013.03 1012.58 1012.02 1011.39 1010.71 1010.03 1009.38 1008.76 1008.20 1007.69 1007.21 1006.76 1006.33 1005.92 1005.54 1005.19 1004.90 1004.69 1004.54 1004.47 1004.47 1004.50 1004.55 1004.60 1004.60 1004.56 1004.47 1004.34 1004.19 1004.04 1003.95 1003.93 1004.04 1004.28 1004.67 1005.21 1005.88 1006.66 1007.52 1008.40
1013.43 1013.29 1013.04 1012.67 1012.17 1011.57 1010.90 1010.18 1009.47 1008.78 1008.13 1007.53 1006.97 1006.45 1005.97 1005.50 1005.07 1004.66 1004.31 1004.01 1003.79 1003.65 1003.58 1003.58 1003.62 1003.69 1003.75 1003.78 1003.77 1003.72 1003.63 1003.52 1003.43 1003.38 1003.42 1003.57 1003.85 1004.29 1004.87 1005.59 1006.42 1007.32 1008.26
1013.11 1012.92 1012.62 1012.19 1011.65 1011.00 1010.29 1009.54 1008.80 1008.08 1007.41 1006.78 1006.21 1005.67 1005.16 1004.69 1004.25 1003.85 1003.50 1003.21 1003.00 1002.87 1002.81 1002.82 1002.88 1002.96 1003.05 1003.12 1003.15 1003.16 1003.13 1003.10 1003.09 1003.12 1003.22 1003.43 1003.76 1004.23 1004.83 1005.56 1006.38 1007.28 1008.21
1012.69 1012.46 1012.11 1011.63 1011.03 1010.35 1009.60 1008.82 1008.05 1007.31 1006.62 1005.98 1005.40 1004.86 1004.36 1003.90 1003.49 1003.11 1002.79 1002.54 1002.36 1002.25 1002.22 1002.25 1002.33 1002.44 1002.56 1002.68 1002.78 1002.85 1002.92 1002.99 1003.07 1003.20 1003.39 1003.67 1004.05 1004.53 1005.13 1005.82 1006.61 1007.45 1008.31
1012.20 1011.93 1011.55 1011.03 1010.39 1009.66 1008.87 1008.06 1007.26 1006.50 1005.80 1005.15 1004.57 1004.05 1003.58 1003.17 1002.80 1002.48 1002.23 1002.03 1001.91 1001.85 1001.86 1001.93 1002.04 1002.19 1002.35 1002.52 1002.69 1002.86 1003.03 1003.21 1003.41 1003.65 1003.94 1004.29 1004.71 1005.20 1005.78 1006.41 1007.11 1007.85 1008.60
1011.67 1011.39 1010.98 1010.43 1009.76 1008.99 1008.17 1007.33 1006.50 1005.72 1005.00 1004.36 1003.79 1003.30 1002.88 1002.52 1002.23 1002.00 1001.83 1001.72 1001.68 1001.70 1001.77 1001.89 1002.05 1002.25 1002.46 1002.69 1002.94 1003.20 1003.47 1003.77 1004.09 1004.44 1004.82 1005.24 1005.70 1006.19 1006.72 1007.29 1007.88 1008.49 1009.10
1011.15 1010.87 1010.45 1009.88 1009.19 1008.40 1007.55 1006.69 1005.83 1005.03 1004.30 1003.66 1003.11 1002.66 1002.29 1002.02 1001.82 1001.69 1001.63 1001.64 1001.70 1001.81 1001.96 1002.15 1002.37 1002.62 1002.89 1003.18 1003.49 1003.84 1004.20 1004.60 1005.03 1005.48 1005.94 1006.43 1006.91 1007.40 1007.89 1008.37 1008.85 1009.33 1009.80
1010.66 1010.39 1009.98 1009.41 1008.72 1007.92 1007.06 1006.18 1005.31 1004.50 1003.77 1003.13 1002.60 1002.19 1001.89 1001.70 1001.60 1001.59 1001.66 1001.78 1001.96 1002.18 1002.42 1002.69 1002.97 1003.27 1003.59 1003.93 1004.30 1004.71 1005.15 1005.62 1006.13 1006.65 1007.19 1007.71 1008.22 1008.70 1009.15 1009.56 1009.94 1010.30 1010.65
1010.20 1009.95 1009.56 1009.02 1008.34 1007.56 1006.71 1005.84 1004.98 1004.17 1003.44 1002.82 1002.33 1001.96 1001.73 1001.62 1001.62 1001.72 1001.90 1002.15 1002.44 1002.76 1003.10 1003.44 1003.79 1004.14 1004.49 1004.87 1005.28 1005.72 1006.20 1006.72 1007.27 1007.85 1008.42 1008.97 1009.49 1009.96 1010.37 1010.73 1011.04 1011.32 1011.57
1009.74 1009.52 1009.17 1008.67 1008.04 1007.30 1006.50 1005.66 1004.84 1004.06 1003.37 1002.78 1002.33 1002.01 1001.84 1001.80 1001.89 1002.09 1002.37 1002.72 1003.11 1003.52 1003.93 1004.34 1004.74 1005.12 1005.51 1005.90 1006.32 1006.78 1007.27 1007.80 1008.37 1008.96 1009.54 1010.10 1010.62 1011.08 1011.48 1011.81 1012.08 1012.30 1012.50
1009.24 1009.06 1008.75 1008.31 1007.75 1007.10 1006.38 1005.63 1004.88 1004.17 1003.54 1003.01 1002.61 1002.35 1002.24 1002.26 1002.41 1002.68 1003.04 1003.46 1003.92 1004.40 1004.86 1005.32 1005.74 1006.15 1006.55 1006.95 1007.36 1007.81 1008.29 1008.81 1009.36 1009.93 1010.51 1011.06 1011.57 1012.02 1012.41 1012.73 1012.98 1013.19 1013.36
1008.67 1008.52 1008.26 1007.91 1007.45 1006.91 1006.32 1005.69 1005.05 1004.46 1003.93 1003.48 1003.16 1002.96 1002.90 1002.98 1003.18 1003.49 1003.88 1004.34 1004.84 1005.34 1005.84 1006.31 1006.75 1007.16 1007.56 1007.95 1008.35 1008.77 1009.22 1009.72 1010.24 1010.78 1011.33 1011.86 1012.35 1012.80 1013.18 1013.50 1013.76 1013.97 1014.14
1008.00 1007.88 1007.69 1007.43 1007.10 1006.71 1006.27 1005.80 1005.33 1004.89 1004.49 1004.16 1003.93 1003.81 1003.81 1003.92 1004.14 1004.47 1004.87 1005.33 1005.82 1006.33 1006.82 1007.28 1007.72 1008.13 1008.51 1008.89 1009.27 1009.67 1010.09 1010.55 1011.03 1011.54 1012.05 1012.55 1013.02 1013.45 1013.83 1014.15 1014.42 1014.65 1014.83
1007.26 1007.17 1007.05 1006.91 1006.72 1006.49 1006.23 1005.96 1005.67 1005.41 1005.17 1004.98 1004.86 1004.83 1004.88 1005.03 1005.27 1005.59 1005.97 1006.40 1006.86 1007.33 1007.79 1008.23 1008.65 1009.04 1009.41 1009.77 1010.14 1010.52 1010.91 1011.34 1011.79 1012.25 1012.73 1013.19 1013.63 1014.04 1014.41 1014.74 1015.01 1015.25 1015.44
1006.51 1006.46 1006.42 1006.38 1006.34 1006.29 1006.22 1006.15 1006.06 1005.99 1005.93 1005.90 1005.90 1005.96 1006.07 1006.25 1006.49 1006.79 1007.13 1007.51 1007.92 1008.33 1008.74 1009.14 1009.53 1009.89 1010.25 1010.60 1010.96 1011.32 1011.70 1012.11 1012.53 1012.96 1013.39 1013.82 1014.23 1014.61 1014.96 1015.28 1015.55 1015.78 1015.97
1005.86 1005.84 1005.88 1005.95 1006.05 1006.16 1006.27 1006.39 1006.50 1006.61 1006.73 1006.84 1006.97 1007.13 1007.30 1007.51 1007.75 1008.02 1008.31 1008.63 1008.97 1009.31 1009.66 1010.01 1010.35 1010.69 1011.03 1011.37 1011.72 1012.08 1012.46 1012.85 1013.24 1013.65 1014.05 1014.44 1014.81 1015.16 1015.49 1015.78 1016.04 1016.26 1016.44
1005.41 1005.44 1005.54 1005.70 1005.92 1006.17 1006.44 1006.71 1006.99 1007.27 1007.53 1007.78 1008.02 1008.26 1008.49 1008.72 1008.96 1009.20 1009.45 1009.70 1009.97 1010.24 1010.52 1010.81 1011.10 1011.41 1011.73 1012.06 1012.41 1012.77 1013.14 1013.52 1013.90 1014.28 1014.65 1015.01 1015.34 1015.66 1015.95 1016.21 1016.45 1016.66 1016.82
1005.27 1005.34 1005.50 1005.74 1006.04 1006.38 1006.76 1007.15 1007.55 1007.94 1008.32 1008.67 1009.00 1009.30 1009.58 1009.83 1010.06 1010.27 1010.48 1010.67 1010.87 1011.07 1011.28 1011.51 1011.75 1012.02 1012.32 1012.63 1012.97 1013.33 1013.69 1014.06 1014.43 1014.78 1015.13 1015.45 1015.75 1016.03 1016.29 1016.53 1016.74 1016.93 1017.09
1005.49 1005.60 1005.81 1006.09 1006.44 1006.83 1007.27 1007.72 1008.18 1008.64 1009.08 1009.49 1009.87 1010.22 1010.52 1010.78 1011.00 1011.19 1011.35 1011.49 1011.63 1011.77 1011.91 1012.08 1012.28 1012.51 1012.77 1013.06 1013.38 1013.72 1014.07 1014.42 1014.77 1015.10 1015.41 1015.71 1015.98 1016.23 1016.46 1016.68 1016.88 1017.06 1017.22
1006.07 1006.22 1006.44 1006.74 1007.10 1007.50 1007.94 1008.40 1008.87 1009.34 1009.80 1010.23 1010.63 1010.98 1011.29 1011.55 1011.76 1011.93 1012.05 1012.15 1012.24 1012.32 1012.41 1012.53 1012.67 1012.85 1013.07 1013.33 1013.62 1013.93 1014.26 1014.58 1014.90 1015.20 1015.49 1015.75 1015.99 1016.22 1016.43 1016.63 1016.83 1017.03 1017.20
1006.93 1007.11 1007.34 1007.63 1007.97 1008.34 1008.75 1009.17 1009.61 1010.04 1010.47 1010.88 1011.26 1011.60 1011.90 1012.14 1012.33 1012.48 1012.58 1012.64 1012.69 1012.72 1012.77 1012.83 1012.93 1013.06 1013.24 1013.46 1013.70 1013.98 1014.26 1014.55 1014.83 1015.10 1015.35 1015.58 1015.80 1016.00 1016.21 1016.41 1016.62 1016.84 1017.05
Thickness
5557 5560 5564 5566 5568 5571 5572 5574 5575 5575 5576 5575 5575 5575 5574 5573 5572 5570 5569 5568 5566 5564 5562 5560 5558 5555 5552 5550 5548 5545 5542 5539 5539 5540 5534 5531 5527 5525 5522 5519 5518 5516 5513
5539 5542 5544 5547 5550 5552 5554 5556 5557 5558 5559 5559 5559 5559 5560 5559 5558 5556 5555 5553 5552 5550 5549 5546 5544 5542 5539 5536 5534 5531 5529 5526 5523 5523 5521 5516 5513 5510 5508 5505 5503 5500 5498
5521 5523 5526 5528 5530 5532 5534 5537 5539 5540 5541 5542 5542 5543 5543 5543 5542 5541 5540 5539 5537 5536 5534 5532 5530 5527 5525 5522 5520 5517 5514 5511 5509 5507 5505 5501 5497 5494 5492 5490 5488 5485 5483
5502 5505 5507 5508 5511 5513 5515 5518 5520 5521 5522 5524 5525 5526 5526 5526 5525 5525 5524 5522 5521 5520 5518 5517 5515 5513 5510 5507 5505 5502 5499 5496 5493 5490 5488 5484 5480 5477 5474 5473 5472 5469 5467
5483 5486 5488 5490 5492 5494 5496 5498 5500 5503 5504 5505 5506 5507 5507 5507 5507 5506 5506 5505 5504 5502 5501 5500 5499 5497 5495 5492 5490 5487 5483 5481 5477 5474 5471 5468 5464 5460 5457 5455 5453 5452 5451
5463 5466 5468 5470 5473 5475 5476 5478 5481 5483 5485 5487 5487 5488 5488 5488 5488 5487 5486 5486 5486 5484 5483 5481 5480 5479 5476 5474 5472 5470 5467 5465 5461 5458 5455 5452 5448 5444 5440 5436 5433 5432 5434
5445 5447 5449 5450 5453 5455 5457 5459 5461 5463 5465 5467 5468 5468 5468 5469 5469 5468 5467 5467 5466 5465 5465 5464 5463 5461 5459 5457 5454 5451 5448 5445 5443 5441 5437 5434 5430 5426 5422 5419 5415 5412 5413
5426 5428 5429 5431 5434 5436 5438 5440 5442 5443 5445 5447 5448 5448 5449 5449 5449 5448 5447 5446 5446 5446 5446 5445 5444 5443 5441 5439 5437 5434 5431 5428 5425 5422 5418 5415 5411 5408 5405 5402 5398 5395 5394
5408 5409 5410 5412 5414 5417 5419 5421 5422 5423 5425 5426 5428 5428 5429 5430 5430 5429 5428 5427 5426 5426 5426 5425 5424 5423 5423 5420 5418 5416 5413 5410 5407 5402 5399 5396 5393 5390 5386 5383 5379 5375 5376
5390 5391 5392 5393 5396 5398 5400 5401 5402 5404 5405 5407 5408 5408 5409 5410 5411 5410 5409 5408 5407 5407 5406 5405 5405 5404 5404 5401 5399 5397 5395 5392 5389 5386 5382 5379 5375 5371 5368 5365 5361 5357 5354
5372 5373 5374 5376 5377 5380 5381 5382 5383 5385 5386 5387 5388 5389 5389 5390 5391 5391 5390 5389 5388 5387 5387 5386 5385 5384 5384 5382 5379 5378 5376 5373 5369 5366 5363 5361 5357 5353 5350 5347 5343 5340 5337
5355 5356 5357 5359 5360 5362 5363 5364 5365 5366 5367 5368 5369 5369 5369 5369 5370 5371 5371 5370 5369 5368 5367 5367 5366 5365 5364 5363 5360 5359 5356 5352 5348 5346 5344 5342 5339 5335 5332 5330 5327 5323 5320
5337 5339 5340 5342 5343 5345 5346 5347 5347 5348 5349 5350 5350 5351 5351 5350 5351 5352 5351 5351 5349 5348 5348 5347 5346 5345 5344 5343 5341 5338 5335 5332 5329 5327 5325 5323 5320 5317 5314 5312 5310 5307 5305
5320 5321 5322 5324 5325 5326 5327 5329 5329 5330 5331 5332 5332 5332 5332 5332 5332 5333 5333 5332 5331 5330 5329 5328 5327 5326 5324 5322 5320 5318 5315 5313 5310 5308 5306 5304 5302 5299 5297 5294 5292 5289 5286
5304 5305 5305 5306 5307 5308 5309 5310 5312 5314 5314 5315 5315 5315 5315 5316 5317 5316 5315 5315 5315 5314 5312 5310 5308 5307 5305 5303 5301 5299 5296 5294 5292 5290 5287 5285 5283 5281 5279 5277 5273 5270 5267
5289 5289 5289 5289 5290 5291 5291 5293 5295 5297 5298 5299 5299 5299 5299 5301 5301 5300 5300 5300 5299 5298 5294 5292 5290 5288 5286 5284 5282 5281 5279 5276 5274 5272 5270 5268 5265 5263 5261 5259 5256 5252 5250
5273 5274 5274 5274 5274 5274 5275 5276 5278 5280 5281 5282 5283 5283 5284 5285 5284 5284 5284 5283 5281 5279 5275 5273 5272 5270 5268 5265 5263 5261 5260 5258 5256 5254 5252 5250 5248 5246 5244 5242 5239 5236 5234
5257 5258 5258 5258 5258 5259 5259 5260 5260 5261 5262 5263 5265 5266 5267 5268 5268 5267 5267 5264 5260 5257 5254 5253 5252 5251 5250 5247 5245 5243 5242 5240 5238 5236 5234 5232 5230 5228 5227 5225 5223 5220 5218
5241 5242 5242 5242 5243 5243 5244 5244 5244 5244 5245 5246 5246 5248 5249 5250 5250 5249 5247 5243 5241 5239 5237 5235 5234 5233 5231 5230 5228 5226 5224 5222 5221 5219 5218 5216 5215 5212 5211 5209 5208 5205 5203
5227 5228 5227 5227 5228 5229 5229 5230 5230 5229 5229 5230 5230 5230 5231 5231 5230 5229 5227 5225 5223 5222 5220 5219 5217 5216 5214 5213 5211 5210 5208 5207 5205 5203 5202 5201 5200 5198 5197 5196 5193 5191 5189
5214 5214 5213 5213 5214 5215 5215 5215 5215 5215 5214 5214 5215 5215 5217 5215 5214 5211 5210 5208 5207 5206 5205 5203 5202 5201 5199 5198 5196 5195 5193 5192 5191 5190 5189 5188 5186 5185 5184 5182 5180 5177 5176
5200 5200 5200 5200 5200 5200 5201 5201 5200 5200 5200 5199 5199 5199 5202 5199 5198 5196 5195 5194 5193 5191 5190 5189 5188 5187 5186 5184 5182 5181 5180 5180 5179 5178 5176 5175 5174 5173 5171 5169 5167 5165 5162
5187 5187 5186 5186 5186 5186 5186 5186 5185 5185 5184 5183 5183 5184 5184 5183 5182 5181 5180 5180 5179 5178 5177 5176 5175 5174 5173 5172 5171 5169 5169 5169 5168 5167 5165 5164 5162 5161 5159 5157 5155 5152 5149
5175 5174 5173 5173 5173 5172 5173 5172 5171 5171 5170 5169 5169 5169 5169 5168 5168 5167 5167 5166 5165 5165 5164 5163 5162 5162 5161 5160 5159 5158 5158 5158 5157 5155 5154 5152 5150 5149 5147 5145 5143 5140 5137
5162 5161 5160 5160 5159 5159 5159 5158 5158 5157 5157 5156 5156 5156 5156 5155 5155 5154 5153 5153 5152 5152 5151 5151 5150 5150 5150 5149 5148 5148 5148 5147 5146 5145 5143 5141 5139 5137 5135 5133 5131 5128 5125
5149 5148 5147 5146 5146 5146 5145 5145 5145 5144 5144 5144 5143 5143 5143 5143 5142 5141 5141 5140 5140 5139 5139 5139 5139 5139 5139 5138 5138 5138 5138 5138 5137 5136 5134 5132 5129 5127 5125 5123 5120 5118 5115